PROFILE

 METAR AND TAF INFORMATION
ADDS - METARS form results

(0811 UTC 19 August 2019)
http://aviationweather.gov/metar/data/
 
LFKB 190800Z AUTO 16004KT 120V210 CAVOK 27/20 Q1016 NOSIG
LFKB 190730Z AUTO 15005KT 120V190 CAVOK 27/19 Q1016 NOSIG
TAF LFKB 190200Z 1903/2003 22006KT CAVOK TX30/1912Z TN20/1903Z PROB30 TEMPO 1903/1905 BKN020 BECMG 1908/1910 12010KT BECMG 1918/1920 22006KT 

 AIRPORT MAP

 RUNWAY INFORMATION
Runway 16 Runway length 8266 ft Runway width 148 ft
Runway elevation 13 ft Runway displaced threshold 0 ft Runway heading 163
Runway 34 Runway length 8266 ft Runway width 148 ft
Runway elevation 26 ft Runway displaced threshold 0 ft Runway heading 343

 AIRPORT FREQUENCIES
Type AFIS Name BASTIA INF Frequency 124.725 MHZ
Type APP Name BASTIA RAD Frequency 123.825 MHZ
Type ARR Name BASTIA APP Frequency 37.85 MHZ
Type ATIS Name BASTIA ATI Frequency 125.925 MHZ
Type GND Name GND Frequency 121.825 MHZ
Type TWR Name BASTIA TWR Frequency 118 MHZ

 AIRPORT NEAR NAVIGATION AIDS
Type VOR-DME Name Bastia Frequency 114150 KHZ